[[[{"header":{"parameterUnit":"kt","parameterCategory":2,"dx":1,"dy":1,"la1":30.253999710083008,"la2":30.299108505249023,"lo1":-89.0895004272461,"lo2":-89.04439544677734,"nx":28,"ny":28,"refTime":"2022-10-09T21:00:00:Z","depth":0,"parameterNumber":1,"parameterNumberName":"U-component_of_WINDS"},"data":[-6.7661,-6.7868,-6.7844,-6.8069,-6.8086,-6.8236,-6.8282,-6.8338,-6.8377,-6.8552,-6.8649,-6.8646,-6.8675,-6.8785,-6.8888,-6.8884,-6.8931,-6.902,-6.9001,-6.8619,-6.8564,-6.8513,-6.8463,-6.903,-6.9031,-6.9402,-6.9405,-6.9408,-6.7381,-6.74,-6.7512,-6.7605,-6.7701,-6.7599,-6.7664,-6.7751,-6.7888,-6.7937,-6.8031,-6.8183,-6.83,-6.8299,-6.8408,-6.8503,-6.8463,-6.8535,-6.8529,-6.8536,-6.8125,-6.8072,-6.8566,-6.8566,-6.8566,-6.8566,-6.8566,-6.8565,-6.6867,-6.6992,-6.7033,-6.7155,-6.7194,-6.7257,-6.7371,-6.7364,-6.7474,-6.7584,-6.7534,-6.7688,-6.7733,-6.7852,-6.7886,-6.8005,-6.7921,-6.7993,-6.8011,-6.8031,-6.8057,-6.7529,-6.8022,-6.802,-6.8019,-6.8017,-6.8016,0,-6.6483,-6.6455,-6.656,-6.666,-6.6746,-6.6821,-6.6885,-6.6955,-6.6886,-6.6979,-6.7112,-6.7184,-6.7327,-6.745,-6.7546,-6.7566,-6.7472,-6.7459,-6.7509,-6.7538,-6.7551,-6.7549,-6.6883,-6.7446,-6.7441,-6.7437,-6.7435,-6.7433,-6.5964,-6.6112,-6.6144,-6.6222,-6.625,-6.6377,-6.6447,-6.6374,-6.6452,-6.652,-6.6634,-6.6755,-6.6849,-6.7065,-6.7056,-6.7163,-6.7119,-6.7337,-6.7135,-6.7155,-6.7126,-6.712,-6.7135,-6.7379,-6.7386,-6.7392,-6.7396,0,-6.5675,-6.5634,-6.5856,-6.5872,-6.5881,-6.604,-6.6054,-6.6175,-6.6155,-6.632,-6.6353,-6.6323,-6.6455,-6.6409,-6.6551,-6.6523,-6.6786,-6.6738,-6.677,-6.6759,-6.6951,-6.6935,-6.7578,-6.766,-6.7067,-6.7073,-6.7078,0,-6.5218,-6.5415,-6.5343,-6.5474,-6.569,-6.5612,-6.5828,-6.5832,-6.5869,-6.5997,-6.5881,-6.6005,-6.5927,-6.6045,-6.6005,-6.621,-6.6236,-6.6228,-6.6216,-6.6241,-6.6243,-6.6285,-6.6259,-6.6179,-6.6176,-6.6173,-6.617,0,-6.4772,-6.4964,-6.5175,-6.5212,-6.525,-6.5351,-6.5372,-6.5412,-6.5482,-6.5564,-6.5609,-6.5711,-6.5768,-6.5849,-6.5798,-6.5663,-6.6047,-6.5851,-6.604,-6.6042,-6.6131,-6.6127,-6.6704,-6.6166,-6.6165,-6.6164,-6.6163,0,-6.4398,-6.4483,-6.4795,-6.4823,-6.4877,-6.5016,-6.5111,-6.5219,-6.527,-6.5253,-6.5318,-6.5237,-6.5411,-6.5219,-6.5459,-6.5298,-6.5361,-6.5368,-6.5381,-6.5398,-6.5186,-6.5522,-6.6073,-6.613,-6.5408,-6.5401,-6.5396,0,-6.39,-6.4203,-6.4138,-6.4437,-6.457,-6.4431,-6.4584,-6.4632,-6.4623,-6.4735,-6.4723,-6.4852,-6.47,-6.4734,-6.4858,-6.4853,-6.5062,-6.4823,-6.4989,-6.4996,-6.4983,-6.5488,-6.5584,-6.5956,-6.5314,-6.5323,-6.5329,0,-6.3509,-6.3552,-6.3611,-6.365,-6.3701,-6.3812,-6.3988,-6.4098,-6.4176,-6.4243,-6.4389,-6.4568,-6.4461,-6.4519,-6.4464,-6.4596,-6.4918,-6.4464,-6.4464,-6.455,-6.5269,-6.5358,-6.5421,-6.4851,-6.4861,-6.4869,-6.5264,0,-6.2958,-6.3103,-6.3257,-6.3348,-6.3426,-6.361,-6.3561,-6.3649,-6.3587,-6.3573,-6.3786,-6.3815,-6.3929,-6.3986,-6.3928,-6.4244,-6.4185,-6.4069,-6.3883,-6.4214,-6.4343,-6.4396,-6.3694,-6.3688,-6.3683,-6.3679,0,0,-6.2493,-6.2701,-6.2624,-6.2791,-6.2853,-6.2706,-6.2907,-6.295,-6.3041,-6.3088,-6.2982,-6.3241,-6.327,-6.3535,-6.3634,-6.3679,-6.3732,-6.3619,-6.4056,-6.4098,-6.4137,-6.4276,-6.4332,-6.367,-6.3669,-6.3667,-6.3665,0,-6.2282,-6.2312,-6.251,-6.2551,-6.2608,-6.2582,-6.263,-6.2662,-6.2662,-6.287,-6.2748,-6.287,-6.3079,-6.3126,-6.3178,-6.3584,-6.3487,-6.3622,-6.3858,-6.4008,-6.4057,-6.41,-6.4247,-6.43,-6.3653,-6.3654,-6.3655,0,-6.189,-6.1912,-6.2003,-6.2135,-6.2171,-6.2313,-6.2103,-6.2262,-6.2366,-6.2199,-6.2409,-6.2419,-6.2478,-6.2733,-6.2846,-6.2754,-6.3267,-6.3096,-6.3125,-6.3138,-6.3282,-6.334,-6.3393,-6.2706,-6.2703,-6.27,0,0,-6.1715,-6.1849,-6.1851,-6.2086,-6.2117,-6.2082,-6.2152,-6.2098,-6.2152,-6.2175,-6.2187,-6.2245,-6.2365,-6.2446,-6.2557,-6.2844,-6.2852,-6.2981,-6.3026,-6.3062,-6.3095,-6.3249,-6.3307,-6.2688,-6.2688,-6.2687,0,0,-6.1632,-6.1642,-6.157,-6.1836,-6.1891,-6.191,-6.2055,-6.1967,-6.2062,-6.2036,-6.1953,-6.1964,-6.2202,-6.2218,-6.2066,-6.249,-6.2306,-6.2341,-6.2472,-6.2528,-6.2572,-6.2565,-6.1859,0,0,0,0,0,-6.1391,-6.164,-6.1574,-6.1611,-6.1779,-6.1946,-6.1967,-6.1903,-6.1773,-6.189,-6.1885,-6.1776,-6.2119,-6.1983,-6.2021,-6.2193,-6.2537,-6.2564,-6.2589,-6.2825,-6.2884,-6.2934,0,0,0,0,0,0,-6.1405,-6.1451,-6.1567,-6.1597,-6.1634,-6.1936,-6.1703,-6.1692,-6.1759,-6.1735,-6.178,-6.1777,-6.1727,-6.1958,-6.1994,-6.2158,-6.1846,-6.2547,-6.257,-6.2591,-6.2845,-6.2893,-6.2935,0,0,0,0,0,-6.1416,-6.1453,-6.1737,-6.1593,-6.1625,-6.16,-6.1693,-6.1682,-6.1733,-6.1727,-6.172,-6.1679,-6.1733,-6.1759,-6.1979,-6.2144,-6.1821,-6.1834,-6.2562,-6.258,-6.2596,-6.2869,0,0,0,0,0,0,-6.1424,-6.1445,-6.1742,-6.175,-6.1494,-6.1582,-6.1593,-6.1674,-6.1719,-6.1715,-6.1621,-6.1601,-6.1741,-6.1759,-6.178,-6.2142,-6.18,-6.1814,-6.1823,-6.2576,-6.259,-6.2602,0,0,0,0,0,0,-6.1424,-6.1452,-6.1746,-6.1625,-6.1618,-6.1566,-6.1576,-6.1754,-6.1721,-6.161,-6.1595,-6.1612,-6.171,-6.1761,-6.1777,-6.2057,-6.1784,-6.1798,-6.1807,-6.1813,-6.2587,-6.2598,0,0,0,0,0,0,-6.1435,-6.1458,-6.1622,-6.1617,-6.161,-6.1689,-6.1721,-6.1897,-6.1616,-6.161,-6.1589,-6.1577,-6.1715,-6.1729,-6.1775,-6.205,-6.2055,-6.1785,-6.1794,-6.18,-6.1804,0,0,0,0,0,0,0,-6.1443,-6.1299,-6.1698,-6.1611,-6.1604,-6.1818,-6.182,-6.1822,-6.1614,-6.1603,-6.1592,-6.1582,-6.1708,-6.1723,-6.1738,-6.2044,0,0,-6.1783,-6.179,0,0,0,0,0,0,0,0,-6.1288,-6.1296,-6.1699,-6.17,-6.1702,-6.1819,-6.182,-6.1822,-6.1612,-6.1603,-6.1594,-6.1586,-6.1712,-6.1724,-6.1736,0,0,0,0,0,0,0,0,0,0,0,0,0,0,0,-6.1699,-6.17,0,-6.1819,-6.182,-6.1822,-6.161,-6.1603,-6.1596,-6.1589,-6.1715,-6.1725,-6.1735,0,0,0,0,0,0,0,0,0,0,0,0,0,0,0,0,0,0,0,0,0,0,0,0,0,0,0,0,0,0,0,0,0,0,0,0,0,0,0,0,0,0,0,0,0,0,0,0,0,0,0,0,0,0,0,0,0,0,0,0,0,0,0,0,0,0,0,0,0]}],[{"header":{"parameterUnit":"kt","parameterCategory":2,"dx":1,"dy":1,"la1":30.253999710083008,"la2":30.299108505249023,"lo1":-89.0895004272461,"lo2":-89.04439544677734,"nx":28,"ny":28,"refTime":"2022-10-09T21:00:00:Z","depth":0,"parameterNumber":2,"parameterNumberName":"V-component_of_WINDS"},"data":[-8.2129,-8.2282,-8.2274,-8.2443,-8.2463,-8.2576,-8.2613,-8.2659,-8.2692,-8.2823,-8.2896,-8.2899,-8.2925,-8.3007,-8.3083,-8.3081,-8.3114,-8.3175,-8.3163,-8.2902,-8.2865,-8.2829,-8.2793,-8.3183,-8.3183,-8.3435,-8.3437,-8.3439,-8.1935,-8.1957,-8.2046,-8.2124,-8.2198,-8.2133,-8.2189,-8.2254,-8.2356,-8.2398,-8.247,-8.2583,-8.267,-8.2675,-8.2756,-8.2823,-8.2796,-8.2846,-8.284,-8.2845,-8.2565,-8.2528,-8.2866,-8.2866,-8.2866,-8.2866,-8.2866,-8.2866,-8.158,-8.1673,-8.1715,-8.181,-8.1847,-8.1899,-8.1984,-8.1988,-8.2071,-8.2158,-8.2128,-8.2242,-8.2279,-8.2371,-8.2398,-8.2484,-8.2426,-8.2476,-8.2489,-8.2502,-8.2518,-8.2154,-8.2497,-8.2496,-8.2495,-8.2494,-8.2493,0,-8.1316,-8.1303,-8.1387,-8.1468,-8.1537,-8.1598,-8.1652,-8.1704,-8.1668,-8.1738,-8.1838,-8.1894,-8.2001,-8.2092,-8.2164,-8.2182,-8.2119,-8.2112,-8.2146,-8.2163,-8.2168,-8.2166,-8.171,-8.2102,-8.2099,-8.2096,-8.2094,-8.2093,-8.0957,-8.1067,-8.1107,-8.1167,-8.1195,-8.1292,-8.1347,-8.1307,-8.1367,-8.1425,-8.1508,-8.1599,-8.167,-8.1829,-8.1828,-8.1908,-8.1878,-8.2029,-8.1889,-8.19,-8.1879,-8.1873,-8.1883,-8.2057,-8.2061,-8.2065,-8.2068,0,-8.0754,-8.0739,-8.0907,-8.0935,-8.0945,-8.1061,-8.1083,-8.1173,-8.1166,-8.1287,-8.1313,-8.1302,-8.1399,-8.1374,-8.148,-8.1463,-8.1648,-8.1618,-8.1635,-8.1627,-8.1759,-8.1747,-8.2193,-8.2249,-8.1846,-8.185,-8.1853,0,-8.0441,-8.0587,-8.0555,-8.0653,-8.0812,-8.077,-8.0927,-8.0937,-8.0971,-8.1067,-8.0993,-8.1084,-8.1038,-8.1124,-8.11,-8.1247,-8.1267,-8.1262,-8.1254,-8.1269,-8.127,-8.1299,-8.128,-8.1232,-8.123,-8.1228,-8.1226,0,-8.0126,-8.0281,-8.044,-8.0472,-8.0516,-8.0591,-8.0612,-8.065,-8.0704,-8.077,-8.0804,-8.0883,-8.0927,-8.0987,-8.0956,-8.0863,-8.1136,-8.1,-8.1131,-8.1132,-8.1193,-8.119,-8.1591,-8.1224,-8.1223,-8.1222,-8.1221,0,-7.987,-7.9942,-8.0176,-8.021,-8.0252,-8.0356,-8.0433,-8.0516,-8.0561,-8.0554,-8.0605,-8.0552,-8.068,-8.0547,-8.0721,-8.0608,-8.0654,-8.0661,-8.067,-8.068,-8.0532,-8.0762,-8.1147,-8.1186,-8.0688,-8.0684,-8.068,0,-7.9513,-7.9746,-7.9711,-7.9934,-8.0037,-7.9948,-8.0062,-8.0105,-8.0105,-8.019,-8.0187,-8.0285,-8.0181,-8.0208,-8.0298,-8.0299,-8.0446,-8.0278,-8.0397,-8.0402,-8.0388,-8.0743,-8.0807,-8.1066,-8.0623,-8.0629,-8.0633,0,-7.9235,-7.929,-7.9333,-7.9367,-7.942,-7.9506,-7.9638,-7.9727,-7.9785,-7.9842,-7.995,-8.0086,-8.0013,-8.0058,-8.0024,-8.0119,-8.0345,-8.0027,-8.0027,-8.0084,-8.0592,-8.0652,-8.0696,-8.03,-8.0307,-8.0312,-8.0588,0,-7.885,-7.8965,-7.9079,-7.916,-7.9224,-7.9362,-7.9339,-7.9407,-7.9369,-7.9365,-7.9524,-7.9552,-7.9641,-7.9684,-7.9647,-7.9873,-7.983,-7.9751,-7.962,-7.9854,-7.9943,-7.998,-7.9488,-7.9484,-7.9481,-7.9478,0,0,-7.8512,-7.8676,-7.8635,-7.8764,-7.8814,-7.872,-7.887,-7.8908,-7.8987,-7.9023,-7.895,-7.9148,-7.9174,-7.9369,-7.944,-7.9476,-7.9513,-7.9433,-7.9743,-7.9773,-7.98,-7.9897,-7.9936,-7.9472,-7.9471,-7.9469,-7.9468,0,-7.8367,-7.8401,-7.8551,-7.8589,-7.8644,-7.8634,-7.8671,-7.8708,-7.8713,-7.8869,-7.8788,-7.8879,-7.904,-7.9078,-7.9118,-7.9409,-7.9342,-7.9438,-7.9602,-7.971,-7.9744,-7.9774,-7.9876,-7.9914,-7.946,-7.9461,-7.9461,0,-7.8088,-7.8117,-7.8188,-7.8301,-7.8336,-7.8445,-7.8302,-7.8424,-7.8504,-7.8393,-7.855,-7.8563,-7.8612,-7.88,-7.8883,-7.8819,-7.9187,-7.9067,-7.9088,-7.9096,-7.9199,-7.924,-7.9277,-7.8794,-7.8792,-7.879,0,0,-7.7965,-7.8073,-7.8091,-7.8268,-7.8296,-7.8284,-7.8339,-7.8307,-7.8356,-7.8376,-7.8391,-7.8439,-7.853,-7.8592,-7.8677,-7.8888,-7.8893,-7.8986,-7.9017,-7.9043,-7.9066,-7.9176,-7.9216,-7.8781,-7.8781,-7.8781,0,0,-7.7906,-7.7936,-7.7889,-7.8092,-7.8142,-7.8171,-7.8279,-7.8221,-7.8296,-7.8278,-7.8227,-7.8238,-7.8413,-7.8429,-7.832,-7.863,-7.8501,-7.8526,-7.8614,-7.8653,-7.8684,-7.8676,-7.8176,0,0,0,0,0,-7.7747,-7.7932,-7.7889,-7.792,-7.8063,-7.8195,-7.8212,-7.8176,-7.8085,-7.8171,-7.8174,-7.8099,-7.8359,-7.8261,-7.8291,-7.8413,-7.8674,-7.8693,-7.8711,-7.8873,-7.8914,-7.8949,0,0,0,0,0,0,-7.7759,-7.7797,-7.7884,-7.7922,-7.7953,-7.8188,-7.8025,-7.802,-7.8075,-7.8058,-7.8101,-7.81,-7.807,-7.8243,-7.8271,-7.8388,-7.8167,-7.8681,-7.8697,-7.8712,-7.8887,-7.8921,-7.895,0,0,0,0,0,-7.7768,-7.7798,-7.8038,-7.7919,-7.7946,-7.7942,-7.8018,-7.8013,-7.8054,-7.806,-7.8057,-7.8022,-7.8075,-7.8095,-7.8259,-7.8376,-7.8147,-7.8158,-7.8692,-7.8704,-7.8716,-7.8904,0,0,0,0,0,0,-7.7775,-7.7793,-7.8042,-7.8049,-7.7847,-7.7928,-7.794,-7.8006,-7.8051,-7.8051,-7.7977,-7.7964,-7.808,-7.8095,-7.8111,-7.8374,-7.8131,-7.8142,-7.8149,-7.8701,-7.8711,-7.872,0,0,0,0,0,0,-7.7776,-7.78,-7.8046,-7.7957,-7.7953,-7.7915,-7.7926,-7.806,-7.8053,-7.7965,-7.7956,-7.7971,-7.8055,-7.8096,-7.8108,-7.8319,-7.8119,-7.813,-7.8137,-7.8141,-7.871,-7.8717,0,0,0,0,0,0,-7.7786,-7.7806,-7.7955,-7.7952,-7.7948,-7.8023,-7.8032,-7.818,-7.7979,-7.7965,-7.796,-7.7951,-7.8058,-7.8069,-7.8107,-7.8312,-7.8317,-7.812,-7.8127,-7.8132,-7.8135,0,0,0,0,0,0,0,-7.7793,-7.7669,-7.8002,-7.7948,-7.7945,-7.8113,-7.8114,-7.8116,-7.7977,-7.797,-7.7962,-7.7955,-7.8062,-7.8073,-7.8084,-7.8308,0,0,-7.8119,-7.8124,0,0,0,0,0,0,0,0,-7.7659,-7.7666,-7.8002,-7.8003,-7.8005,-7.8113,-7.8114,-7.8116,-7.7976,-7.797,-7.7964,-7.7958,-7.8065,-7.8073,-7.8083,0,0,0,0,0,0,0,0,0,0,0,0,0,0,0,-7.8002,-7.8003,0,-7.8113,-7.8114,-7.8116,-7.7975,-7.797,-7.7965,-7.796,-7.8067,-7.8074,-7.8082,0,0,0,0,0,0,0,0,0,0,0,0,0,0,0,0,0,0,0,0,0,0,0,0,0,0,0,0,0,0,0,0,0,0,0,0,0,0,0,0,0,0,0,0,0,0,0,0,0,0,0,0,0,0,0,0,0,0,0,0,0,0,0,0,0,0,0,0,0]}]]]